| time (UTC) | temp F | wind direction | speed knots | gust knots | rain 1hr in | rain 24hr in | rain mn in | humidity % | barometer mb |
| 20260902082153 | 78 | 115 | 7.8 | 14.8 | 0.00 | 0.00 | 0.00 | 84 | 1015.8 |
| 20260902081653 | 78 | 59 | 7.0 | 18.2 | 0.00 | 0.00 | 0.00 | 83 | 1016.0 |
| 20260902081424 | 78 | 101 | 11.3 | 18.2 | 0.00 | 0.00 | 0.00 | 84 | 1015.9 |
| 20260902081301 | 78 | 87 | 6.1 | 16.5 | 0.00 | 0.00 | 0.00 | 84 | 1016.2 |
| 20260902080425 | 78 | 102 | 8.7 | 16.5 | 0.00 | 0.00 | 0.00 | 84 | 1015.9 |
| 20260902075653 | 78 | 52 | 6.1 | 16.5 | 0.00 | 0.00 | 0.00 | 85 | 1016.0 |
| 20260902075152 | 78 | 82 | 6.1 | 16.5 | 0.00 | 0.00 | 0.00 | 85 | 1016.2 |
| 20260902074651 | 78 | 115 | 7.8 | 13.9 | 0.00 | 0.00 | 0.00 | 86 | 1016.1 |
| 20260902074157 | 78 | 69 | 8.7 | 16.5 | 0.00 | 0.00 | 0.00 | 85 | 1016.2 |
| 20260902074151 | 78 | 77 | 7.8 | 16.5 | 0.00 | 0.00 | 0.00 | 85 | 1015.9 |
| 20260902073149 | 78 | 77 | 9.6 | 16.5 | 0.00 | 0.00 | 0.00 | 85 | 1016.2 |
| 20260902072648 | 78 | 105 | 7.8 | 13.9 | 0.00 | 0.00 | 0.00 | 84 | 1015.8 |
| 20260902072417 | 78 | 65 | 7.8 | 16.5 | 0.00 | 0.00 | 0.00 | 84 | 1015.8 |
| 20260902071645 | 78 | 51 | 7.0 | 16.5 | 0.00 | 0.00 | 0.00 | 84 | 1016.0 |
| 20260902071146 | 78 | 84 | 4.3 | 14.8 | 0.00 | 0.00 | 0.00 | 84 | 1015.9 |
| 20260902070646 | 78 | 95 | 7.0 | 13.9 | 0.00 | 0.00 | 0.00 | 84 | 1016.0 |
| 20260902070146 | 78 | 92 | 8.7 | 16.5 | 0.00 | 0.00 | 0.00 | 85 | 1016.0 |
| 20260902065645 | 78 | 114 | 4.3 | 17.4 | 0.00 | 0.00 | 0.00 | 84 | 1015.4 |
| 20260902065417 | 78 | 75 | 12.2 | 17.4 | 0.00 | 0.00 | 0.00 | 85 | 1015.7 |
| 20260902064645 | 78 | 94 | 4.3 | 14.8 | 0.00 | 0.00 | 0.00 | 86 | 1015.7 |
| 20260902064151 | 78 | 84 | 5.2 | 14.8 | 0.00 | 0.00 | 0.00 | 85 | 1015.6 |
| 20260902064145 | 78 | 116 | 3.5 | 13.9 | 0.00 | 0.00 | 0.00 | 85 | 1015.6 |
| 20260902063146 | 78 | 61 | 8.7 | 14.8 | 0.00 | 0.00 | 0.00 | 85 | 1015.5 |
| 20260902062645 | 78 | 87 | 6.1 | 13.0 | 0.00 | 0.00 | 0.00 | 85 | 1015.6 |
| 20260902062145 | 78 | 94 | 7.0 | 14.8 | 0.00 | 0.00 | 0.00 | 83 | 1015.5 |
| 20260902061915 | 78 | 66 | 7.8 | 14.8 | 0.00 | 0.00 | 0.00 | 84 | 1015.6 |
| 20260902061404 | 78 | 125 | 10.4 | 16.5 | 0.00 | 0.00 | 0.00 | 84 | 1015.6 |
| 20260902060903 | 78 | 82 | 5.2 | 16.5 | 0.00 | 0.00 | 0.00 | 83 | 1015.5 |
| 20260902060138 | 78 | 89 | 7.0 | 13.9 | 0.00 | 0.00 | 0.00 | 83 | 1015.4 |
| 20260902060132 | 79 | 87 | 8.7 | 13.9 | 0.00 | 0.00 | 0.00 | 84 | 1015.4 |
| 20260902055402 | 78 | 90 | 7.8 | 18.2 | 0.00 | 0.00 | 0.00 | 83 | 1015.4 |
| 20260902054632 | 78 | 77 | 9.6 | 18.2 | 0.00 | 0.00 | 0.00 | 83 | 1015.3 |
| 20260902054132 | 78 | 87 | 7.0 | 13.9 | 0.00 | 0.00 | 0.00 | 83 | 1015.4 |
| 20260902053902 | 78 | 65 | 6.1 | 14.8 | 0.00 | 0.00 | 0.00 | 85 | 1015.4 |
| 20260902053402 | 78 | 68 | 3.5 | 14.8 | 0.00 | 0.00 | 0.00 | 86 | 1015.2 |
| 20260902052631 | 78 | 70 | 4.3 | 17.4 | 0.00 | 0.00 | 0.00 | 86 | 1015.3 |
| 20260902052130 | 77 | 61 | 12.2 | 17.4 | 0.00 | 0.00 | 0.00 | 85 | 1015.3 |
| 20260902051901 | 77 | 62 | 7.8 | 16.5 | 0.00 | 0.00 | 0.00 | 85 | 1015.3 |
| 20260902051401 | 77 | 77 | 7.0 | 17.4 | 0.00 | 0.00 | 0.00 | 85 | 1015.1 |
| 20260902050629 | 76 | 71 | 5.2 | 17.4 | 0.00 | 0.00 | 0.00 | 85 | 1015.1 |
| 20260902050358 | 77 | 114 | 7.8 | 13.9 | 0.00 | 0.00 | 0.00 | 86 | 1015.2 |
| 20260902045627 | 77 | 91 | 7.0 | 14.8 | 0.00 | 0.00 | 0.00 | 87 | 1015.1 |
| 20260902045128 | 77 | 33 | 5.2 | 14.8 | 0.00 | 0.00 | 0.00 | 87 | 1015.2 |
| 20260902044627 | 77 | 86 | 7.0 | 20.0 | 0.00 | 0.00 | 0.00 | 86 | 1015.1 |
| 20260902044356 | 78 | 105 | 10.4 | 20.0 | 0.00 | 0.00 | 0.00 | 84 | 1015.0 |
| 20260902043626 | 78 | 58 | 12.2 | 17.4 | 0.00 | 0.00 | 0.00 | 82 | 1014.7 |
| 20260902043125 | 79 | 94 | 7.8 | 13.9 | 0.00 | 0.00 | 0.00 | 83 | 1014.8 |
| 20260902042857 | 79 | 55 | 4.3 | 13.9 | 0.00 | 0.00 | 0.00 | 82 | 1014.8 |
| 20260902042125 | 79 | 98 | 7.8 | 16.5 | 0.00 | 0.00 | 0.00 | 82 | 1014.7 |
| 20260902041624 | 79 | 78 | 7.0 | 16.5 | 0.00 | 0.00 | 0.00 | 81 | 1014.5 |
| 20260902041127 | 79 | 23 | 7.8 | 14.8 | 0.00 | 0.00 | 0.00 | 81 | 1014.8 |
| 20260902040625 | 79 | 108 | 6.1 | 13.0 | 0.00 | 0.00 | 0.00 | 80 | 1014.6 |
| 20260902040356 | 79 | 33 | 6.1 | 13.0 | 0.00 | 0.00 | 0.00 | 80 | 1014.8 |
| 20260902035626 | 78 | 90 | 3.5 | 13.0 | 0.00 | 0.00 | 0.00 | 79 | 1014.7 |
| 20260902035124 | 78 | 86 | 7.0 | 13.0 | 0.00 | 0.00 | 0.00 | 80 | 1014.8 |
| 20260902034626 | 78 | 86 | 6.1 | 14.8 | 0.00 | 0.00 | 0.00 | 80 | 1014.9 |
| 20260902034124 | 78 | 75 | 7.0 | 17.4 | 0.00 | 0.00 | 0.00 | 82 | 1015.1 |
| 20260902033624 | 78 | 73 | 12.2 | 20.0 | 0.00 | 0.00 | 0.00 | 82 | 1014.9 |
| 20260902033125 | 79 | 48 | 7.0 | 20.0 | 0.00 | 0.00 | 0.00 | 82 | 1015.1 |
| 20260902032625 | 79 | 80 | 11.3 | 18.2 | 0.00 | 0.00 | 0.00 | 79 | 1014.9 |
| 20260902032125 | 79 | 64 | 7.0 | 16.5 | 0.00 | 0.00 | 0.00 | 79 | 1015.3 |
| 20260902031625 | 79 | 76 | 8.7 | 13.0 | 0.00 | 0.00 | 0.00 | 78 | 1015.1 |
| 20260902031125 | 79 | 55 | 6.1 | 14.8 | 0.00 | 0.00 | 0.00 | 79 | 1015.2 |
| 20260902030624 | 79 | 76 | 8.7 | 14.8 | 0.00 | 0.00 | 0.00 | 80 | 1015.0 |
| 20260902030124 | 79 | 111 | 5.2 | 16.5 | 0.00 | 0.00 | 0.00 | 81 | 1015.3 |
| 20260902025856 | 80 | 88 | 10.4 | 18.2 | 0.00 | 0.00 | 0.00 | 80 | 1015.0 |
| 20260902025124 | 80 | 76 | 7.0 | 18.2 | 0.00 | 0.00 | 0.00 | 79 | 1015.0 |
| 20260902024626 | 81 | 84 | 9.6 | 18.2 | 0.00 | 0.00 | 0.00 | 79 | 1014.8 |
| 20260902024124 | 80 | 86 | 7.8 | 18.2 | 0.00 | 0.00 | 0.00 | 75 | 1014.8 |
| 20260902023613 | 81 | 110 | 9.6 | 16.5 | 0.00 | 0.00 | 0.00 | 77 | 1014.9 |
| 20260902023113 | 80 | 106 | 10.4 | 16.5 | 0.00 | 0.00 | 0.00 | 76 | 1014.9 |
| 20260902022613 | 81 | 73 | 8.7 | 16.5 | 0.00 | 0.00 | 0.00 | 78 | 1014.8 |
| 20260902022113 | 81 | 53 | 6.1 | 16.5 | 0.00 | 0.00 | 0.00 | 78 | 1014.7 |
| 20260902021613 | 81 | 79 | 7.0 | 17.4 | 0.00 | 0.00 | 0.00 | 77 | 1014.9 |
| 20260902021113 | 81 | 105 | 7.8 | 18.2 | 0.00 | 0.00 | 0.00 | 76 | 1014.9 |
| 20260902020613 | 81 | 35 | 7.8 | 18.2 | 0.00 | 0.00 | 0.00 | 78 | 1014.7 |
| 20260902020344 | 81 | 66 | 3.5 | 16.5 | 0.00 | 0.00 | 0.00 | 78 | 1014.9 |
| 20260902015613 | 81 | 75 | 5.2 | 18.2 | 0.00 | 0.00 | 0.00 | 79 | 1014.9 |
| 20260902015113 | 81 | 89 | 9.6 | 18.2 | 0.00 | 0.00 | 0.00 | 77 | 1014.9 |
| 20260902014613 | 81 | 58 | 7.8 | 16.5 | 0.00 | 0.00 | 0.00 | 77 | 1015.0 |
| 20260902014112 | 81 | 84 | 8.7 | 16.5 | 0.00 | 0.00 | 0.00 | 76 | 1015.1 |
| 20260902013843 | 81 | 108 | 7.8 | 16.5 | 0.00 | 0.00 | 0.00 | 77 | 1015.0 |
| 20260902013112 | 81 | 73 | 8.7 | 16.5 | 0.00 | 0.00 | 0.00 | 76 | 1015.0 |
| 20260902012612 | 82 | 78 | 12.2 | 18.2 | 0.00 | 0.00 | 0.00 | 76 | 1015.3 |
| 20260902012112 | 82 | 88 | 10.4 | 18.2 | 0.00 | 0.00 | 0.00 | 77 | 1015.0 |
| 20260902011611 | 82 | 64 | 7.8 | 24.3 | 0.00 | 0.00 | 0.00 | 75 | 1015.1 |
| 20260902011111 | 82 | 80 | 7.8 | 24.3 | 0.00 | 0.00 | 0.00 | 75 | 1014.9 |
| 20260902010611 | 82 | 82 | 7.8 | 17.4 | 0.00 | 0.00 | 0.00 | 76 | 1015.1 |
| 20260902010111 | 82 | 100 | 9.6 | 20.0 | 0.00 | 0.00 | 0.00 | 76 | 1015.0 |
| 20260902005612 | 82 | 84 | 12.2 | 20.0 | 0.00 | 0.00 | 0.00 | 76 | 1015.1 |
| 20260902005111 | 82 | 50 | 7.8 | 18.2 | 0.00 | 0.00 | 0.00 | 77 | 1015.2 |
| 20260902004612 | 82 | 47 | 7.0 | 18.2 | 0.00 | 0.00 | 0.00 | 75 | 1015.3 |
| 20260902004111 | 82 | 56 | 12.2 | 16.5 | 0.00 | 0.00 | 0.00 | 75 | 1015.4 |
| 20260902003612 | 82 | 54 | 8.7 | 16.5 | 0.00 | 0.00 | 0.00 | 76 | 1015.3 |
| 20260902003112 | 82 | 53 | 12.2 | 18.2 | 0.00 | 0.00 | 0.00 | 75 | 1015.2 |
| 20260902002612 | 82 | 76 | 9.6 | 20.9 | 0.00 | 0.00 | 0.00 | 75 | 1015.3 |
| 20260902002112 | 82 | 91 | 8.7 | 20.9 | 0.00 | 0.00 | 0.00 | 75 | 1015.3 |
| 20260902001600 | 82 | 49 | 6.1 | 18.2 | 0.00 | 0.00 | 0.00 | 76 | 1015.4 |
| 20260902001100 | 82 | 47 | 12.2 | 17.4 | 0.00 | 0.00 | 0.00 | 78 | 1015.4 |
| 20260902000600 | 82 | 83 | 10.4 | 16.5 | 0.00 | 0.00 | 0.00 | 78 | 1015.2 |
| 20260902000100 | 82 | 86 | 7.0 | 16.5 | 0.00 | 0.00 | 0.00 | 76 | 1015.2 |
| 20260901235600 | 82 | 63 | 10.4 | 16.5 | 0.00 | 0.00 | 0.00 | 79 | 1015.4 |
| 20260901235100 | 82 | 62 | 10.4 | 16.5 | 0.00 | 0.00 | 0.00 | 78 | 1015.5 |
| 20260901234600 | 83 | 41 | 8.7 | 16.5 | 0.00 | 0.00 | 0.00 | 77 | 1015.6 |
| 20260901234318 | 83 | 74 | 9.6 | 16.5 | 0.00 | 0.00 | 0.00 | 76 | 1015.6 |
| 20260901233549 | 83 | 82 | 9.6 | 14.8 | 0.00 | 0.00 | 0.00 | 75 | 1015.6 |
| 20260901233036 | 83 | 56 | 6.1 | 20.0 | 0.00 | 0.00 | 0.00 | 76 | 1015.6 |
| 20260901232807 | 83 | 69 | 10.4 | 20.0 | 0.00 | 0.00 | 0.00 | 74 | 1015.6 |
| 20260901232023 | 83 | 75 | 10.4 | 16.5 | 0.00 | 0.00 | 0.00 | 74 | 1015.7 |
| 20260901231524 | 83 | 53 | 7.8 | 17.4 | 0.00 | 0.00 | 0.00 | 76 | 1015.9 |
| 20260901231024 | 83 | 77 | 8.7 | 22.6 | 0.00 | 0.00 | 0.00 | 75 | 1015.8 |
| 20260901230523 | 83 | 77 | 10.4 | 22.6 | 0.00 | 0.00 | 0.00 | 73 | 1016.1 |
| 20260901230024 | 83 | 91 | 9.6 | 20.0 | 0.00 | 0.00 | 0.00 | 74 | 1015.9 |
| 20260901225524 | 83 | 76 | 7.8 | 20.0 | 0.00 | 0.00 | 0.00 | 74 | 1016.1 |
| 20260901225024 | 83 | 101 | 12.2 | 17.4 | 0.00 | 0.00 | 0.00 | 74 | 1016.1 |
| 20260901224755 | 83 | 104 | 7.8 | 18.2 | 0.00 | 0.00 | 0.00 | 74 | 1016.1 |
| 20260901224024 | 83 | 91 | 7.8 | 18.2 | 0.00 | 0.00 | 0.00 | 74 | 1016.1 |
| 20260901223524 | 83 | 69 | 7.8 | 20.0 | 0.00 | 0.00 | 0.00 | 75 | 1016.0 |
| 20260901223026 | 83 | 60 | 6.1 | 20.0 | 0.00 | 0.00 | 0.00 | 75 | 1016.1 |
| 20260901222523 | 83 | 30 | 7.0 | 18.2 | 0.00 | 0.00 | 0.00 | 74 | 1016.0 |
| 20260901222024 | 84 | 83 | 8.7 | 16.5 | 0.00 | 0.00 | 0.00 | 75 | 1016.0 |
| 20260901221755 | 82 | 102 | 7.0 | 16.5 | 0.00 | 0.00 | 0.00 | 76 | 1016.1 |
| 20260901221629 | 82 | 36 | 5.2 | 16.5 | 0.00 | 0.00 | 0.00 | 75 | 1016.2 |
| 20260901220523 | 83 | 67 | 9.6 | 20.0 | 0.00 | 0.00 | 0.00 | 76 | 1016.2 |
| 20260901220255 | 82 | 64 | 10.4 | 20.0 | 0.00 | 0.00 | 0.00 | 75 | 1016.5 |
| 20260901215518 | 82 | 83 | 9.6 | 18.2 | 0.00 | 0.00 | 0.00 | 77 | 1016.4 |
| 20260901215012 | 82 | 58 | 5.2 | 20.9 | 0.00 | 0.00 | 0.00 | 76 | 1016.4 |
| 20260901214511 | 83 | 78 | 6.1 | 20.9 | 0.00 | 0.00 | 0.00 | 76 | 1016.6 |
| 20260901214011 | 82 | 28 | 7.8 | 16.5 | 0.00 | 0.00 | 0.00 | 77 | 1016.3 |
| 20260901213512 | 81 | 57 | 10.4 | 14.8 | 0.00 | 0.00 | 0.00 | 78 | 1016.7 |
| 20260901213011 | 81 | 44 | 5.2 | 17.4 | 0.00 | 0.00 | 0.00 | 77 | 1016.5 |
| 20260901212512 | 82 | 58 | 7.8 | 17.4 | 0.00 | 0.00 | 0.00 | 78 | 1016.6 |
| 20260901212243 | 82 | 33 | 12.2 | 16.5 | 0.00 | 0.00 | 0.00 | 77 | 1016.7 |
| 20260901211511 | 82 | 95 | 8.7 | 16.5 | 0.00 | 0.00 | 0.00 | 77 | 1016.7 |
| 20260901211011 | 82 | 27 | 8.7 | 16.5 | 0.00 | 0.00 | 0.00 | 77 | 1016.7 |
| 20260901210512 | 82 | 82 | 7.8 | 16.5 | 0.00 | 0.00 | 0.00 | 76 | 1016.9 |
| 20260901210243 | 82 | 56 | 9.6 | 14.8 | 0.00 | 0.00 | 0.00 | 75 | 1016.8 |
| 20260901205518 | 82 | 76 | 6.1 | 13.9 | 0.00 | 0.00 | 0.00 | 76 | 1016.9 |
| 20260901205512 | 82 | 41 | 7.0 | 14.8 | 0.00 | 0.00 | 0.00 | 77 | 1016.5 |
| 20260901204512 | 82 | 41 | 7.8 | 14.8 | 0.00 | 0.00 | 0.00 | 76 | 1016.9 |
| 20260901204012 | 83 | 67 | 5.2 | 14.8 | 0.00 | 0.00 | 0.00 | 76 | 1016.8 |
| 20260901203518 | 82 | 106 | 3.5 | 13.0 | 0.00 | 0.00 | 0.00 | 75 | 1016.8 |
| 20260901203511 | 83 | 49 | 7.8 | 13.9 | 0.00 | 0.00 | 0.00 | 75 | 1016.9 |
| 20260901202511 | 82 | 112 | 7.0 | 13.0 | 0.00 | 0.00 | 0.00 | 76 | 1016.8 |
| 20260901202011 | 81 | 43 | 7.0 | 14.8 | 0.00 | 0.00 | 0.00 | 76 | 1017.0 |
| 20260901201742 | 82 | 110 | 7.8 | 14.8 | 0.00 | 0.00 | 0.00 | 74 | 1016.9 |
| 20260901201011 | 82 | 66 | 5.2 | 13.9 | 0.00 | 0.00 | 0.00 | 74 | 1016.8 |
| 20260901200511 | 82 | 69 | 7.0 | 13.9 | 0.00 | 0.00 | 0.00 | 75 | 1017.0 |
| 20260901200011 | 82 | 57 | 4.3 | 16.5 | 0.00 | 0.00 | 0.00 | 74 | 1017.3 |
| 20260901195511 | 82 | 89 | 8.7 | 16.5 | 0.00 | 0.00 | 0.00 | 75 | 1017.1 |
| 20260901195011 | 82 | 126 | 4.3 | 13.9 | 0.00 | 0.00 | 0.00 | 76 | 1016.9 |
| 20260901194511 | 81 | 85 | 5.2 | 13.9 | 0.00 | 0.00 | 0.00 | 76 | 1016.9 |
| 20260901194011 | 81 | 82 | 8.7 | 13.0 | 0.00 | 0.00 | 0.00 | 75 | 1016.9 |
| 20260901193511 | 81 | 118 | 2.6 | 16.5 | 0.00 | 0.00 | 0.00 | 74 | 1017.2 |
| 20260901193012 | 81 | 104 | 9.6 | 16.5 | 0.00 | 0.00 | 0.00 | 75 | 1017.1 |
| 20260901192512 | 81 | 77 | 8.7 | 13.0 | 0.00 | 0.00 | 0.00 | 75 | 1017.2 |
| 20260901192012 | 80 | 38 | 5.2 | 14.8 | 0.00 | 0.00 | 0.00 | 76 | 1017.1 |
| 20260901191512 | 80 | 82 | 7.0 | 14.8 | 0.00 | 0.00 | 0.00 | 75 | 1017.1 |
| 20260901191012 | 81 | 76 | 5.2 | 13.0 | 0.00 | 0.00 | 0.00 | 74 | 1017.1 |
| 20260901190512 | 81 | 67 | 6.1 | 16.5 | 0.00 | 0.00 | 0.00 | 76 | 1017.0 |
| 20260901190012 | 80 | 62 | 7.8 | 16.5 | 0.00 | 0.00 | 0.00 | 75 | 1017.2 |
| 20260901185514 | 80 | 89 | 6.1 | 13.0 | 0.00 | 0.00 | 0.00 | 78 | 1017.0 |
| 20260901185012 | 80 | 71 | 7.8 | 13.0 | 0.00 | 0.00 | 0.00 | 77 | 1017.1 |
| 20260901184512 | 80 | 98 | 7.8 | 13.9 | 0.00 | 0.00 | 0.00 | 77 | 1017.0 |
| 20260901184011 | 79 | 86 | 7.8 | 13.9 | 0.00 | 0.00 | 0.00 | 78 | 1017.0 |
| 20260901183518 | 79 | 97 | 5.2 | 14.8 | 0.00 | 0.00 | 0.00 | 79 | 1016.8 |
| 20260901183511 | 79 | 104 | 7.0 | 14.8 | 0.00 | 0.00 | 0.00 | 78 | 1017.1 |
| 20260901182512 | 79 | 89 | 9.6 | 13.9 | 0.00 | 0.00 | 0.00 | 79 | 1017.0 |
| 20260901182243 | 79 | 22 | 7.0 | 12.2 | 0.00 | 0.00 | 0.00 | 79 | 1017.0 |
| 20260901181512 | 79 | 79 | 5.2 | 8.7 | 0.00 | 0.00 | 0.00 | 79 | 1016.8 |
| 20260901181012 | 79 | 62 | 6.1 | 13.0 | 0.00 | 0.00 | 0.00 | 79 | 1016.8 |
| 20260901180743 | 79 | 109 | 7.8 | 13.0 | 0.00 | 0.00 | 0.00 | 78 | 1016.7 |
| 20260901180011 | 79 | 83 | 5.2 | 12.2 | 0.00 | 0.00 | 0.00 | 79 | 1016.9 |
| 20260901175511 | 79 | 110 | 5.2 | 13.0 | 0.00 | 0.00 | 0.00 | 78 | 1016.8 |
| 20260901175011 | 79 | 91 | 6.1 | 13.0 | 0.00 | 0.00 | 0.00 | 78 | 1016.8 |
| 20260901174743 | 79 | 73 | 5.2 | 12.2 | 0.00 | 0.00 | 0.00 | 79 | 1016.8 |
| 20260901174016 | 78 | 87 | 7.0 | 13.0 | 0.00 | 0.00 | 0.00 | 79 | 1016.9 |
| 20260901173743 | 78 | 56 | 7.0 | 13.0 | 0.00 | 0.00 | 0.00 | 79 | 1016.9 |
| 20260901173617 | 78 | 83 | 6.1 | 9.6 | 0.00 | 0.00 | 0.00 | 78 | 1016.9 |
| 20260901172731 | 78 | 63 | 4.3 | 9.6 | 0.00 | 0.00 | 0.00 | 78 | 1016.7 |
| 20260901172000 | 78 | 107 | 4.3 | 11.3 | 0.00 | 0.00 | 0.00 | 78 | 1016.7 |
| 20260901171501 | 78 | 95 | 5.2 | 12.2 | 0.00 | 0.00 | 0.00 | 77 | 1016.6 |
| 20260901171231 | 78 | 58 | 1.7 | 12.2 | 0.00 | 0.00 | 0.00 | 78 | 1016.5 |
| 20260901170455 | 78 | 84 | 2.6 | 8.7 | 0.00 | 0.00 | 0.00 | 78 | 1016.5 |
| 20260901165947 | 78 | 78 | 3.5 | 11.3 | 0.00 | 0.00 | 0.00 | 77 | 1016.4 |
| 20260901165447 | 78 | 100 | 4.3 | 16.5 | 0.00 | 0.00 | 0.00 | 78 | 1016.8 |
| 20260901164949 | 78 | 77 | 5.2 | 16.5 | 0.00 | 0.00 | 0.00 | 77 | 1016.4 |
| 20260901164447 | 77 | 68 | 4.3 | 9.6 | 0.00 | 0.00 | 0.00 | 77 | 1016.6 |
| 20260901163947 | 77 | 83 | 3.5 | 13.9 | 0.00 | 0.00 | 0.00 | 77 | 1016.5 |
| 20260901163448 | 78 | 78 | 2.6 | 13.9 | 0.00 | 0.00 | 0.00 | 79 | 1016.7 |
| 20260901162942 | 77 | 91 | 2.6 | 11.3 | 0.00 | 0.00 | 0.00 | 78 | 1016.6 |
| 20260901162436 | 77 | 101 | 1.7 | 11.3 | 0.00 | 0.00 | 0.00 | 78 | 1016.7 |
| 20260901161935 | 77 | 110 | 5.2 | 11.3 | 0.00 | 0.00 | 0.00 | 78 | 1016.5 |
| 20260901161435 | 77 | 98 | 3.5 | 11.3 | 0.00 | 0.00 | 0.00 | 77 | 1016.3 |
| 20260901160935 | 77 | 70 | 3.5 | 11.3 | 0.00 | 0.00 | 0.00 | 78 | 1016.5 |
| 20260901160436 | 77 | 58 | 3.5 | 9.6 | 0.00 | 0.00 | 0.00 | 78 | 1016.3 |
| 20260901155936 | 77 | 75 | 3.5 | 9.6 | 0.00 | 0.00 | 0.00 | 78 | 1016.2 |
| 20260901155424 | 77 | 100 | 3.5 | 12.2 | 0.00 | 0.00 | 0.00 | 78 | 1016.0 |
| 20260901154924 | 77 | 71 | 5.2 | 12.2 | 0.00 | 0.00 | 0.00 | 77 | 1016.3 |
| 20260901154655 | 78 | 57 | 3.5 | 12.2 | 0.00 | 0.00 | 0.00 | 77 | 1016.2 |
| 20260901153925 | 77 | 103 | 7.0 | 13.0 | 0.00 | 0.00 | 0.00 | 76 | 1016.4 |
| 20260901153424 | 77 | 70 | 4.3 | 13.0 | 0.00 | 0.00 | 0.00 | 78 | 1016.2 |
| 20260901152923 | 77 | 70 | 5.2 | 13.9 | 0.00 | 0.00 | 0.00 | 77 | 1016.3 |
| 20260901152423 | 77 | 30 | 5.2 | 13.9 | 0.00 | 0.00 | 0.00 | 77 | 1016.1 |
| 20260901151912 | 77 | 102 | 5.2 | 13.0 | 0.00 | 0.00 | 0.00 | 78 | 1016.1 |
| 20260901151411 | 77 | 67 | 5.2 | 12.2 | 0.00 | 0.00 | 0.00 | 78 | 1015.8 |
| 20260901150911 | 77 | 72 | 4.3 | 11.3 | 0.00 | 0.00 | 0.00 | 77 | 1016.0 |
| 20260901150644 | 77 | 91 | 6.1 | 12.2 | 0.00 | 0.00 | 0.00 | 78 | 1015.9 |
| 20260901145912 | 77 | 86 | 3.5 | 12.2 | 0.00 | 0.00 | 0.00 | 79 | 1015.7 |
| 20260901145412 | 78 | 41 | 5.2 | 12.2 | 0.00 | 0.00 | 0.00 | 79 | 1015.8 |
| 20260901144912 | 78 | 90 | 3.5 | 12.2 | 0.00 | 0.00 | 0.00 | 79 | 1015.6 |
| 20260901144405 | 78 | 122 | 6.1 | 12.2 | 0.00 | 0.00 | 0.00 | 79 | 1015.7 |
| 20260901143859 | 77 | 90 | 5.2 | 12.2 | 0.00 | 0.00 | 0.00 | 78 | 1015.8 |
| 20260901143359 | 77 | 86 | 7.0 | 12.2 | 0.00 | 0.00 | 0.00 | 78 | 1015.6 |
| 20260901142859 | 77 | 76 | 3.5 | 13.0 | 0.00 | 0.00 | 0.00 | 79 | 1015.8 |
| 20260901142400 | 77 | 99 | 5.2 | 13.0 | 0.00 | 0.00 | 0.00 | 78 | 1015.8 |
| 20260901141901 | 78 | 58 | 6.1 | 12.2 | 0.00 | 0.00 | 0.00 | 79 | 1015.7 |
| 20260901141400 | 77 | 84 | 5.2 | 12.2 | 0.00 | 0.00 | 0.00 | 78 | 1015.7 |
| 20260901140855 | 77 | 72 | 6.1 | 12.2 | 0.00 | 0.00 | 0.00 | 78 | 1015.8 |
| 20260901140347 | 77 | 114 | 3.5 | 8.7 | 0.00 | 0.00 | 0.00 | 78 | 1015.8 |
| 20260901135847 | 77 | 67 | 3.5 | 8.7 | 0.00 | 0.00 | 0.00 | 78 | 1015.4 |
| 20260901135353 | 77 | 102 | 5.2 | 12.2 | 0.00 | 0.00 | 0.00 | 76 | 1015.8 |
| 20260901135347 | 77 | 55 | 4.3 | 12.2 | 0.00 | 0.00 | 0.00 | 77 | 1015.7 |
| 20260901134347 | 77 | 91 | 5.2 | 12.2 | 0.00 | 0.00 | 0.00 | 76 | 1015.5 |
| 20260901133848 | 77 | 60 | 7.0 | 12.2 | 0.00 | 0.00 | 0.00 | 76 | 1015.5 |
| 20260901133342 | 77 | 97 | 5.2 | 11.3 | 0.00 | 0.00 | 0.00 | 75 | 1015.6 |
| 20260901132835 | 77 | 95 | 3.5 | 12.2 | 0.00 | 0.00 | 0.00 | 75 | 1015.6 |
| 20260901132335 | 77 | 108 | 6.1 | 12.2 | 0.00 | 0.00 | 0.00 | 75 | 1016.1 |
| 20260901131836 | 77 | 70 | 5.2 | 12.2 | 0.00 | 0.00 | 0.00 | 75 | 1015.8 |
| 20260901131606 | 77 | 93 | 5.2 | 12.2 | 0.00 | 0.00 | 0.00 | 76 | 1015.7 |
| 20260901130836 | 77 | 121 | 3.5 | 13.0 | 0.00 | 0.00 | 0.00 | 77 | 1015.7 |
| 20260901130335 | 77 | 72 | 5.2 | 13.0 | 0.00 | 0.00 | 0.00 | 77 | 1015.7 |
| 20260901125823 | 77 | 83 | 5.2 | 13.0 | 0.00 | 0.00 | 0.00 | 77 | 1015.7 |
| 20260901125324 | 78 | 119 | 5.2 | 11.3 | 0.00 | 0.00 | 0.00 | 78 | 1015.4 |
| 20260901125054 | 77 | 85 | 3.5 | 13.0 | 0.00 | 0.00 | 0.00 | 78 | 1015.7 |
| 20260901124323 | 77 | 71 | 3.5 | 13.9 | 0.00 | 0.00 | 0.00 | 77 | 1015.6 |
| 20260901124055 | 77 | 86 | 3.5 | 13.9 | 0.00 | 0.00 | 0.00 | 78 | 1015.8 |
| 20260901123324 | 77 | 68 | 7.8 | 13.9 | 0.00 | 0.00 | 0.00 | 79 | 1015.8 |
| 20260901123056 | 77 | 76 | 3.5 | 13.9 | 0.00 | 0.00 | 0.00 | 78 | 1016.1 |
| 20260901122323 | 77 | 99 | 6.1 | 13.0 | 0.00 | 0.00 | 0.00 | 78 | 1016.1 |
| 20260901121823 | 77 | 90 | 3.5 | 13.0 | 0.00 | 0.00 | 0.00 | 78 | 1016.0 |
| 20260901121325 | 77 | 66 | 5.2 | 14.8 | 0.00 | 0.00 | 0.00 | 78 | 1016.1 |
| 20260901121054 | 77 | 87 | 9.6 | 14.8 | 0.00 | 0.00 | 0.00 | 77 | 1016.1 |
| 20260901120324 | 77 | 102 | 7.0 | 13.9 | 0.00 | 0.00 | 0.00 | 77 | 1016.0 |
| 20260901120055 | 77 | 110 | 3.5 | 13.9 | 0.00 | 0.00 | 0.00 | 77 | 1016.3 |
| 20260901115325 | 77 | 91 | 5.2 | 12.2 | 0.00 | 0.00 | 0.00 | 77 | 1016.1 |
| 20260901114824 | 77 | 106 | 5.2 | 13.0 | 0.00 | 0.00 | 0.00 | 78 | 1016.2 |
| 20260901114325 | 77 | 126 | 3.5 | 13.9 | 0.00 | 0.00 | 0.00 | 78 | 1016.2 |
| 20260901113824 | 77 | 99 | 4.3 | 13.9 | 0.00 | 0.00 | 0.00 | 77 | 1016.3 |
| 20260901113556 | 77 | 78 | 9.6 | 13.9 | 0.00 | 0.00 | 0.00 | 77 | 1016.3 |
| 20260901112825 | 77 | 104 | 7.0 | 13.9 | 0.00 | 0.00 | 0.00 | 77 | 1016.0 |
| 20260901112325 | 77 | 94 | 2.6 | 17.4 | 0.00 | 0.00 | 0.00 | 76 | 1016.4 |
| 20260901112055 | 77 | 88 | 6.1 | 17.4 | 0.00 | 0.00 | 0.00 | 76 | 1016.4 |
| 20260901111600 | 78 | 85 | 3.5 | 14.8 | 0.00 | 0.00 | 0.00 | 79 | 1016.4 |
| 20260901111324 | 77 | 80 | 7.8 | 13.0 | 0.00 | 0.00 | 0.00 | 77 | 1016.5 |
| 20260901110323 | 78 | 87 | 6.1 | 14.8 | 0.00 | 0.00 | 0.00 | 78 | 1016.4 |
| 20260901105823 | 78 | 107 | 5.2 | 14.8 | 0.00 | 0.00 | 0.00 | 78 | 1016.6 |
| 20260901105325 | 78 | 92 | 9.6 | 17.4 | 0.00 | 0.00 | 0.00 | 77 | 1016.8 |
| 20260901104824 | 78 | 82 | 7.8 | 13.9 | 0.00 | 0.00 | 0.00 | 79 | 1016.5 |
| 20260901104323 | 78 | 68 | 4.3 | 13.9 | 0.00 | 0.00 | 0.00 | 79 | 1016.5 |
| 20260901103823 | 78 | 111 | 6.1 | 13.9 | 0.00 | 0.00 | 0.00 | 79 | 1016.8 |
| 20260901103323 | 78 | 92 | 4.3 | 14.8 | 0.00 | 0.00 | 0.00 | 78 | 1016.5 |
| 20260901103042 | 78 | 80 | 9.6 | 14.8 | 0.00 | 0.00 | 0.00 | 78 | 1016.5 |
| 20260901102311 | 78 | 114 | 4.3 | 13.9 | 0.00 | 0.00 | 0.00 | 77 | 1016.8 |
| 20260901101812 | 78 | 99 | 4.3 | 13.9 | 0.00 | 0.00 | 0.00 | 77 | 1016.7 |
| 20260901101312 | 78 | 119 | 7.0 | 13.9 | 0.00 | 0.01 | 0.00 | 76 | 1016.6 |
| 20260901100812 | 78 | 101 | 9.6 | 13.9 | 0.00 | 0.01 | 0.00 | 77 | 1016.7 |
| 20260901100313 | 78 | 69 | 9.6 | 16.5 | 0.00 | 0.02 | 0.00 | 77 | 1016.7 |
| 20260901095812 | 78 | 121 | 7.8 | 16.5 | 0.00 | 0.02 | 0.02 | 76 | 1016.9 |
| 20260901095312 | 78 | 68 | 7.0 | 13.9 | 0.00 | 0.02 | 0.02 | 77 | 1016.9 |
| 20260901094812 | 78 | 103 | 7.0 | 14.8 | 0.00 | 0.02 | 0.02 | 77 | 1016.8 |
| 20260901094311 | 78 | 95 | 5.2 | 17.4 | 0.00 | 0.02 | 0.02 | 78 | 1016.9 |
| 20260901093812 | 78 | 76 | 7.8 | 20.0 | 0.00 | 0.02 | 0.02 | 77 | 1017.0 |
| 20260901093311 | 78 | 124 | 4.3 | 20.0 | 0.00 | 0.02 | 0.02 | 77 | 1017.1 |
| 20260901092801 | 78 | 83 | 7.0 | 18.2 | 0.00 | 0.02 | 0.02 | 78 | 1017.1 |
| 20260901092301 | 78 | 81 | 11.3 | 18.2 | 0.00 | 0.02 | 0.02 | 77 | 1017.2 |
| 20260901092019 | 78 | 107 | 7.0 | 14.8 | 0.00 | 0.02 | 0.02 | 77 | 1017.2 |
| 20260901091248 | 78 | 125 | 4.3 | 16.5 | 0.00 | 0.02 | 0.02 | 78 | 1017.3 |
| 20260901090753 | 78 | 93 | 7.8 | 18.2 | 0.00 | 0.02 | 0.02 | 76 | 1017.0 |
| 20260901090748 | 78 | 90 | 8.7 | 16.5 | 0.00 | 0.02 | 0.02 | 77 | 1017.4 |
| 20260901085748 | 78 | 122 | 4.3 | 18.2 | 0.00 | 0.05 | 0.02 | 77 | 1017.1 |
| 20260901085518 | 78 | 90 | 8.7 | 17.4 | 0.00 | 0.05 | 0.02 | 77 | 1017.4 |
| 20260901084748 | 78 | 101 | 7.0 | 17.4 | 0.00 | 0.05 | 0.02 | 76 | 1017.3 |
| 20260901084248 | 78 | 105 | 9.6 | 16.5 | 0.00 | 0.05 | 0.02 | 75 | 1017.3 |
| 20260901083748 | 78 | 58 | 11.3 | 17.4 | 0.00 | 0.05 | 0.02 | 76 | 1017.1 |
| 20260901083248 | 78 | 89 | 6.1 | 17.4 | 0.00 | 0.05 | 0.02 | 77 | 1017.2 |
| 20260901082747 | 78 | 77 | 7.8 | 16.5 | 0.00 | 0.05 | 0.02 | 77 | 1017.3 |